Theta_e
364 361 359 359 362 359 351 342 320 327 324 315 315 321 317 330 329 326 326 330 323 329 333 335 336 336 332 329 330 331 332 328 331 318 315 334 349 349 352 353 354 352 353 355 357 358 358 361 362 362 364 363 365 365 365 364 364 364 365 366 366 368 368 369 369 369 367 366 366 366 365 365 366 367 367 367 367 367 366 365 365 364 363 363 364 365 366 366 365 363 364 363 364 363 365 362 364
362 359 358 359 356 350 334 343 323 319 320 315 314 320 319 328 327 323 323 325 325 327 331 334 335 336 336 335 335 333 331 334 336 334 339 346 350 351 353 354 353 352 354 354 355 356 357 359 361 362 363 364 363 365 366 366 364 364 365 366 366 367 368 368 369 369 367 366 365 364 365 366 367 367 368 367 367 366 366 365 366 365 365 364 364 365 366 366 365 364 364 364 364 364 364 363 362
356 354 353 356 353 348 343 339 316 315 313 310 314 319 325 320 322 325 326 327 330 332 333 332 335 336 335 336 330 328 324 339 339 340 340 348 344 347 352 355 354 353 354 354 354 356 357 359 362 362 363 363 362 364 366 367 366 365 365 365 366 367 367 367 367 368 367 365 365 364 364 365 367 368 368 367 367 367 366 366 367 368 368 366 365 365 365 365 365 364 364 364 364 364 364 363 363
355 357 353 352 338 346 331 328 322 316 312 313 313 323 323 322 323 327 330 331 332 333 334 332 330 338 334 328 329 335 333 334 341 340 339 343 345 350 353 354 356 354 354 355 355 356 357 360 362 362 362 363 362 364 365 367 366 365 365 364 365 366 366 366 367 367 366 365 364 363 364 366 368 368 368 369 367 367 367 367 368 367 368 367 366 365 365 365 365 364 364 364 364 364 364 364 363
356 357 358 349 337 328 327 324 322 319 312 317 313 320 323 325 326 328 330 333 333 333 333 332 331 337 338 334 336 329 330 339 341 345 343 348 352 352 354 355 355 354 353 355 355 355 357 362 362 363 362 363 362 363 364 366 366 365 365 365 365 366 366 366 366 366 366 365 363 363 366 368 368 368 367 367 368 368 368 368 367 367 368 367 367 367 366 366 365 365 364 363 364 364 363 364 363
357 355 358 350 334 342 331 320 317 315 318 321 318 318 322 325 325 329 330 333 334 334 334 333 331 330 330 332 336 331 338 331 343 345 347 347 352 354 355 356 354 353 354 355 355 355 356 361 362 363 363 363 362 363 363 365 365 364 364 365 365 365 365 365 365 365 365 364 363 364 367 368 369 368 368 368 367 367 368 367 367 367 367 367 368 368 367 366 365 365 364 364 363 364 363 363 362
352 348 346 345 340 338 319 318 318 318 321 325 323 323 323 325 327 327 329 331 334 335 338 332 335 333 328 335 338 342 345 346 343 345 350 351 353 355 355 355 354 353 354 355 356 356 356 361 364 364 365 364 363 363 363 364 363 364 364 364 364 364 364 364 364 364 364 363 363 364 366 368 368 367 367 367 366 367 367 367 367 367 368 367 366 367 366 365 364 364 364 363 363 363 364 363 363
358 341 340 331 326 323 319 320 319 321 320 324 326 327 326 327 326 327 328 328 327 329 334 335 337 333 330 338 328 342 347 348 348 351 351 352 354 355 355 354 353 352 354 355 356 356 364 363 364 365 364 363 363 364 363 364 363 363 363 364 364 364 363 363 364 364 363 363 363 365 366 366 366 365 365 366 366 367 366 367 368 368 368 367 366 366 366 365 364 364 364 363 363 363 363 364 363
352 344 346 331 321 324 318 317 319 326 322 324 325 329 332 328 329 325 326 329 331 332 332 335 336 329 330 333 331 340 344 349 351 353 352 352 352 353 354 353 352 352 354 355 357 359 361 364 365 365 365 364 364 364 364 365 365 364 364 364 364 364 364 364 364 364 363 364 363 364 365 366 366 365 365 365 365 366 366 367 367 367 368 367 366 365 364 363 363 363 363 363 363 362 363 363 363
349 344 327 326 326 315 316 317 317 319 318 322 323 325 328 330 328 329 327 327 329 332 334 338 337 330 333 328 332 338 344 350 351 351 353 352 351 351 352 353 352 352 353 355 358 360 361 368 366 365 363 364 365 365 366 365 364 362 365 366 366 365 365 365 365 364 364 363 363 363 365 366 365 365 365 366 366 366 367 367 367 368 367 367 366 365 364 362 362 362 363 363 362 362 362 363 363
336 341 337 326 317 313 313 315 315 317 318 322 324 328 328 330 329 328 327 329 335 332 335 338 332 332 332 332 333 344 350 350 348 346 351 352 353 351 351 353 353 353 354 356 358 360 362 362 368 365 365 365 366 366 366 365 365 364 366 368 367 366 365 365 364 364 364 363 362 362 364 366 365 365 365 366 366 366 366 367 366 368 367 367 366 365 364 363 362 361 362 362 363 363 363 364 363
328 328 332 318 315 313 316 317 317 314 320 320 320 327 327 329 328 325 328 328 332 332 332 338 332 335 329 329 331 340 345 345 349 349 351 352 352 353 353 353 353 354 356 356 359 359 361 363 363 366 365 365 366 366 365 365 364 364 366 367 367 366 366 365 365 365 364 363 362 361 363 366 366 366 365 365 365 365 365 365 366 367 367 366 365 364 364 363 362 362 363 363 363 362 363 364 365
332 329 322 319 316 316 317 316 317 315 315 315 320 325 328 327 326 327 329 329 331 330 332 338 338 337 327 329 336 341 340 343 348 350 352 351 351 352 352 352 353 354 355 358 358 359 360 361 361 363 363 366 365 364 365 365 364 365 366 367 367 366 366 366 365 365 363 362 362 361 362 366 367 367 366 365 366 366 366 366 366 366 364 364 365 364 364 363 363 363 363 363 363 362 362 364 366
332 334 325 319 322 318 317 317 316 311 309 315 319 324 328 327 327 330 331 327 329 331 338 341 339 337 331 333 333 335 339 347 349 351 351 351 352 352 352 353 352 352 355 357 357 359 360 361 360 361 361 360 359 363 365 365 364 365 367 367 366 366 366 366 365 364 363 362 361 361 362 366 366 366 365 365 366 367 367 366 365 364 364 364 365 364 364 363 362 362 363 364 362 361 363 364 365
331 341 327 324 317 316 318 314 312 310 308 313 318 323 327 329 330 327 330 328 330 338 341 345 340 334 325 329 328 334 340 348 350 351 351 351 352 352 351 351 350 352 353 354 357 358 358 360 361 362 363 362 362 362 360 361 364 365 366 366 365 364 364 365 365 364 363 362 361 360 363 365 364 364 364 364 362 362 364 362 363 364 364 364 364 364 363 364 361 363 362 363 364 364 363 364 367
336 333 326 317 314 316 317 316 315 311 308 314 318 324 325 326 329 330 333 335 332 338 341 333 341 334 335 332 334 339 343 347 350 351 350 350 350 351 350 349 350 350 351 353 354 355 357 359 362 363 363 363 362 362 363 362 363 364 365 365 364 363 363 363 364 364 363 362 362 361 363 365 364 362 364 363 361 360 361 362 363 366 365 365 365 365 364 362 362 363 363 363 364 365 365 365 367
337 336 323 320 315 316 315 313 314 307 312 316 320 321 320 321 328 334 338 337 331 332 336 338 335 341 336 336 340 343 346 349 351 350 349 347 347 347 347 348 348 349 351 351 352 352 354 359 361 361 362 362 362 362 363 363 364 365 364 365 365 365 365 364 364 364 363 362 362 364 364 365 361 362 362 362 364 361 366 365 363 363 365 365 364 364 364 363 363 364 364 364 364 364 365 366 367
333 324 321 315 317 317 319 316 316 317 314 315 317 320 319 320 329 332 335 333 333 333 332 336 339 339 340 341 344 346 347 348 348 347 346 345 345 344 344 345 346 346 348 349 351 351 353 358 359 359 360 361 361 362 364 365 365 365 360 361 362 364 365 364 362 360 364 360 365 364 362 363 359 361 362 367 365 364 363 366 365 364 365 363 363 364 363 363 364 364 365 364 366 366 366 364 365
324 321 319 314 317 319 324 322 322 319 316 318 319 322 321 322 324 329 328 328 329 329 331 333 334 337 341 343 344 345 346 346 346 346 345 344 344 344 344 345 345 346 347 349 350 351 354 356 358 357 359 360 358 360 363 364 363 363 363 363 363 366 365 363 359 363 359 360 361 360 364 359 362 362 366 367 367 368 368 367 367 366 366 366 364 364 364 364 365 364 366 366 364 366 365 362 362
329 322 315 317 323 322 325 324 323 324 320 319 320 321 321 322 322 325 324 326 328 325 327 331 333 333 337 340 343 344 345 345 346 345 345 345 345 346 345 345 345 346 347 349 350 354 355 355 356 356 357 357 356 358 361 363 362 363 364 364 362 361 360 362 358 359 359 361 361 360 360 362 365 363 370 365 362 363 363 364 367 366 367 366 364 364 363 365 366 366 364 364 366 366 360 355 352
326 322 317 319 323 320 324 325 326 326 324 321 320 322 318 319 320 322 323 322 323 325 331 332 332 334 336 339 342 343 344 344 345 345 345 345 346 347 347 347 346 348 349 351 351 353 355 355 355 356 357 357 357 358 359 361 362 361 362 362 361 360 359 359 357 359 358 361 359 360 361 363 362 362 361 363 359 358 360 361 363 361 358 356 363 357 357 356 356 353 353 354 353 358 354 352 355
325 322 324 324 324 323 325 325 327 325 326 322 321 318 317 321 320 321 321 317 318 324 332 337 337 338 338 339 341 343 343 343 344 344 344 345 345 345 348 349 350 350 351 349 349 352 354 354 355 356 357 357 358 357 358 361 362 358 359 359 359 359 360 358 357 357 359 359 359 361 361 359 358 359 360 360 360 360 359 360 360 358 355 355 360 354 353 353 352 354 354 352 350 349 352 353 354
317 323 325 326 326 321 324 326 326 325 324 323 318 322 321 318 314 321 322 319 324 331 335 339 340 341 341 342 342 342 342 342 343 343 344 345 345 346 347 348 348 347 348 348 350 351 353 353 354 357 357 357 357 358 358 359 358 357 358 356 357 357 358 357 356 356 357 361 361 362 359 357 356 357 359 360 360 362 358 358 358 356 355 354 357 353 351 354 351 352 351 350 350 353 353 354 356
321 318 324 324 327 323 326 325 326 325 324 322 323 322 318 316 312 322 319 324 329 335 337 338 340 341 341 340 341 342 342 343 343 345 346 346 347 347 347 348 349 349 347 348 349 351 352 352 354 356 357 357 357 356 356 356 356 356 356 359 357 357 357 356 355 356 358 361 363 361 361 359 358 356 359 359 359 355 357 356 358 356 356 356 359 354 350 352 350 349 353 351 351 351 352 353 352
319 318 321 322 325 325 326 325 324 324 324 325 325 320 318 318 317 319 319 328 335 337 338 338 340 341 340 339 340 340 341 343 343 344 346 346 348 348 348 348 349 348 346 348 349 350 350 353 355 356 357 356 357 356 354 356 355 355 356 356 354 362 356 355 355 357 358 360 362 361 362 351 352 352 355 356 359 353 354 355 355 352 354 354 356 352 353 355 352 352 352 353 350 350 353 352 353
318 319 323 322 324 326 327 325 325 325 325 325 323 322 322 323 323 319 320 329 337 338 338 338 338 338 338 339 340 340 341 341 343 343 343 345 346 346 345 346 347 346 347 348 348 349 350 354 354 356 357 356 357 356 354 356 355 354 354 354 354 364 355 355 358 357 359 360 360 361 361 352 350 350 356 355 357 355 353 351 354 353 354 358 356 355 359 357 353 353 350 352 353 352 352 353 351
320 319 321 322 324 325 326 323 324 324 323 325 322 321 321 324 321 313 321 330 337 336 336 337 337 336 337 338 339 341 341 341 341 343 343 343 345 344 345 346 345 346 348 348 349 349 351 353 353 356 357 359 357 355 355 356 355 353 355 354 355 358 356 357 358 356 357 358 359 361 362 362 355 353 357 360 359 358 357 354 353 353 351 352 357 356 359 357 357 356 357 355 353 352 352 352 353
320 319 324 324 324 325 323 323 322 322 322 325 324 322 323 323 321 314 322 330 334 334 335 335 336 336 337 338 339 341 341 341 342 341 340 340 342 343 343 343 344 345 346 347 348 349 350 352 352 356 357 358 356 355 357 355 355 355 357 355 355 356 357 358 355 355 359 357 362 363 365 365 368 365 362 357 359 360 359 358 358 358 351 353 358 358 359 361 360 359 358 357 357 353 351 350 353
317 318 313 315 318 317 321 320 322 322 321 325 325 322 319 319 317 319 323 331 331 333 334 334 335 335 336 337 339 339 340 340 340 339 340 340 343 344 343 345 345 345 346 348 349 349 350 351 351 355 357 357 355 354 355 354 356 356 356 356 358 360 359 358 356 355 359 360 362 363 363 364 365 365 361 360 366 359 358 358 356 356 360 356 358 361 362 360 358 358 355 360 356 355 352 349 353
318 317 313 312 313 314 319 322 322 321 323 325 324 308 312 317 320 320 322 326 330 330 331 332 332 335 335 336 337 338 338 337 338 337 339 340 343 343 344 345 346 346 346 347 349 349 352 352 353 354 355 355 355 354 354 354 354 356 357 356 362 360 357 355 357 357 361 362 359 362 361 363 362 362 364 360 359 358 357 357 352 352 358 357 357 362 362 357 357 354 356 353 356 354 349 348 348
310 313 313 307 306 307 318 320 320 317 323 323 323 308 311 318 321 321 322 323 327 326 328 330 332 334 333 334 336 337 337 338 339 338 341 340 343 344 345 346 347 347 348 347 347 348 351 351 353 353 355 353 356 352 354 354 355 356 356 356 359 357 357 354 353 356 360 361 362 361 362 363 360 362 364 360 361 358 354 353 354 354 357 359 358 357 354 354 351 350 353 348 348 349 347 347 347
310 305 302 306 304 307 315 321 320 315 321 324 320 310 312 318 321 322 322 322 328 325 327 328 330 332 333 333 336 336 337 339 341 340 343 341 342 344 346 346 347 348 347 348 348 349 348 349 352 352 353 351 354 353 353 355 355 356 356 361 356 358 357 355 354 354 358 361 362 363 363 365 363 364 363 361 359 359 356 352 352 356 358 357 357 357 357 352 352 350 352 350 347 345 347 343 343
307 305 310 303 305 307 310 318 320 319 320 321 319 310 315 316 321 323 324 321 326 325 326 326 329 332 332 333 336 336 336 338 340 341 343 343 343 345 346 347 348 349 348 349 348 349 347 349 352 351 352 351 353 353 356 355 355 355 356 358 356 358 356 355 355 355 356 356 360 362 364 367 364 363 364 361 359 358 355 353 354 356 359 357 357 355 355 355 351 352 349 354 348 345 344 342 340
302 306 302 306 305 307 304 316 318 319 319 314 319 312 315 318 320 323 324 322 324 323 325 326 328 331 331 333 335 335 335 336 338 340 342 344 344 346 347 351 349 350 350 350 351 349 350 349 351 350 353 353 353 352 356 356 355 356 357 356 359 356 355 354 354 354 355 354 360 362 365 366 365 364 363 361 358 357 355 353 354 359 359 358 357 356 353 354 353 351 349 352 350 344 342 339 335
300 302 302 304 307 309 308 310 315 317 318 315 315 313 315 319 321 322 323 323 322 322 325 325 327 329 330 333 334 334 334 335 336 340 342 344 345 346 347 349 349 351 351 350 351 350 351 351 351 352 353 353 353 353 356 357 358 358 355 355 356 354 353 352 353 353 354 357 360 362 364 364 366 363 362 361 358 357 355 353 357 358 358 357 356 355 353 354 352 348 345 347 351 343 336 337 335
305 306 305 306 305 306 307 314 317 317 315 314 313 311 314 318 319 321 324 324 320 321 325 326 327 328 330 332 334 334 334 335 338 340 343 344 345 345 346 349 350 350 352 351 352 351 350 353 350 353 352 354 355 355 356 355 355 355 352 352 352 354 353 355 356 355 357 356 360 361 361 362 363 362 360 360 358 358 356 357 355 355 354 354 354 353 351 348 347 348 348 340 338 340 345 341 340
309 308 307 306 307 308 313 314 317 318 314 312 314 314 315 317 318 320 324 324 321 320 321 323 325 327 330 332 334 334 334 336 339 341 342 343 344 344 346 348 349 349 351 351 351 351 350 352 350 350 355 354 356 355 354 354 351 351 351 350 349 351 351 353 357 356 355 357 360 360 360 360 361 362 361 359 358 363 358 357 355 355 355 353 352 351 350 348 348 349 345 343 338 336 337 344 341
308 307 307 305 307 306 312 313 317 318 313 311 315 314 315 317 319 321 323 323 320 320 320 320 322 327 329 331 333 334 335 338 339 340 341 343 343 344 346 347 350 347 348 351 350 350 350 353 351 350 355 356 356 356 355 354 353 352 350 349 349 350 351 351 353 355 354 357 357 360 361 361 361 360 361 359 360 360 359 354 354 353 353 353 353 354 352 356 350 345 345 336 342 336 335 339 343
308 306 306 305 306 309 313 314 317 317 315 310 315 313 314 317 319 321 322 322 322 323 323 321 321 325 327 331 333 334 335 335 337 339 341 342 343 343 344 346 347 348 348 350 351 351 351 352 353 353 353 355 356 356 356 354 354 355 352 351 350 350 353 355 355 358 359 355 358 358 360 360 361 360 361 361 360 361 360 355 353 353 351 354 352 350 352 346 347 342 338 338 337 341 342 345 346
306 306 304 302 306 305 302 311 316 317 314 311 314 313 314 318 319 320 323 323 323 324 325 324 323 323 325 329 332 333 334 335 335 337 339 341 342 343 343 345 346 347 347 348 351 351 351 352 352 354 353 354 356 356 358 356 357 357 355 354 353 352 352 356 357 358 356 354 355 356 359 360 360 360 361 361 361 360 360 354 354 354 352 355 351 349 347 343 346 339 339 343 338 333 336 338 348
307 307 306 305 306 307 308 308 313 316 316 317 314 312 313 316 315 317 321 325 325 325 325 326 325 325 327 329 330 333 335 335 335 337 338 340 340 342 342 345 346 346 347 348 349 351 352 352 352 354 354 354 355 358 357 357 358 357 356 357 355 355 358 356 354 353 354 353 353 354 358 360 360 359 361 361 361 359 359 358 356 355 355 354 354 349 347 346 345 338 343 344 340 337 336 338 343
306 309 308 308 308 307 309 311 310 308 307 313 311 303 304 314 316 317 319 321 321 324 323 323 325 325 326 326 328 331 335 337 337 337 338 339 340 341 343 344 345 346 347 349 350 351 352 352 353 354 356 355 355 357 357 357 356 354 355 352 350 349 347 348 349 349 350 351 351 355 360 360 360 359 360 359 359 360 357 358 357 355 354 354 353 349 347 344 341 341 341 340 338 339 338 335 334
302 305 311 310 309 309 308 308 308 304 301 309 314 303 300 312 313 316 318 318 319 322 322 323 324 326 326 326 328 330 333 336 338 339 339 339 340 341 342 343 345 345 347 349 350 350 351 352 354 355 356 356 356 356 358 358 355 355 355 352 350 349 345 347 351 352 351 353 354 356 359 359 360 359 359 357 359 360 360 358 356 354 353 352 355 348 344 337 341 342 344 343 341 345 339 336 336
302 309 310 310 309 308 308 308 307 307 313 313 313 309 301 301 310 317 318 317 318 319 321 322 324 327 326 326 328 330 332 336 338 338 339 339 341 341 343 344 345 345 347 349 349 350 351 352 354 355 356 358 357 357 357 359 355 355 355 353 352 350 349 349 353 353 355 358 355 354 357 358 360 360 358 356 359 360 359 357 355 353 351 349 352 342 339 343 344 345 343 344 345 344 340 335 336
306 310 311 309 309 309 308 307 306 306 308 303 309 311 302 301 309 316 318 314 316 317 320 321 322 325 326 327 328 330 331 335 338 339 339 339 341 342 344 345 346 347 347 348 349 349 351 353 354 355 355 357 357 357 356 358 358 356 355 354 352 352 352 354 355 355 355 357 354 354 356 358 360 359 359 359 359 359 359 356 354 351 349 347 354 344 346 343 341 341 340 340 342 342 340 342 338
309 312 312 311 311 310 309 306 305 304 302 299 306 310 301 299 308 311 316 315 314 317 319 321 323 324 325 327 328 331 331 334 337 340 341 341 342 343 345 347 347 347 348 350 350 351 351 353 354 355 355 356 357 357 357 357 358 358 355 354 352 352 353 355 354 353 353 354 354 355 356 358 359 358 358 357 356 357 356 355 353 350 348 347 351 343 345 342 341 342 342 341 342 340 341 338 335
311 311 309 308 308 307 307 307 304 302 296 298 308 310 307 299 306 310 312 314 317 319 320 322 323 325 326 327 328 331 331 333 335 337 341 342 343 344 346 346 347 348 349 350 350 351 352 353 354 354 355 356 357 357 357 356 357 357 355 355 353 352 353 354 352 351 351 353 353 354 355 357 358 356 357 355 355 355 354 354 350 349 347 349 350 343 341 342 342 342 342 343 343 339 335 338 342
309 306 305 304 302 304 302 305 303 296 293 301 306 306 309 300 304 312 317 319 321 320 319 321 322 324 326 327 328 329 332 333 334 335 338 341 342 343 345 346 346 347 348 349 350 351 353 353 354 354 355 356 356 357 358 357 357 357 356 356 355 355 354 353 351 350 352 352 353 354 355 356 355 355 355 354 354 354 353 351 351 349 346 344 341 343 342 341 340 338 340 338 335 339 340 337 337
306 305 303 298 294 296 293 296 293 292 293 301 306 306 303 302 308 313 316 319 320 323 323 323 323 324 326 328 328 329 331 334 334 334 335 338 340 342 343 344 346 346 347 348 349 350 352 354 354 354 354 356 357 357 358 358 357 357 357 357 356 357 355 353 353 350 354 352 352 353 353 352 353 351 352 352 353 352 351 349 347 345 343 342 341 341 343 341 337 339 336 337 335 337 338 338 333
303 301 300 296 292 291 288 291 295 294 302 305 304 307 301 304 308 316 316 319 322 324 325 325 324 324 327 329 329 329 330 334 334 335 336 337 340 342 343 344 346 346 347 348 349 350 352 354 355 355 355 357 357 357 358 358 357 357 358 358 357 358 355 354 353 352 353 353 353 353 353 352 351 351 351 351 352 351 350 349 345 343 343 343 342 342 340 340 341 339 337 338 336 335 337 336 334
303 305 303 300 297 295 290 292 290 292 293 301 307 301 296 299 300 316 318 320 322 324 325 326 326 326 328 330 330 330 330 333 334 334 336 337 340 341 342 344 345 347 347 348 348 349 352 353 355 355 356 357 357 357 358 358 357 358 358 359 358 358 357 355 354 354 354 352 353 353 352 352 352 351 352 352 353 349 348 349 344 343 343 343 342 343 342 340 343 341 339 339 338 336 336 338 335
305 306 305 300 299 303 294 297 297 297 297 297 300 299 304 303 313 317 319 320 321 323 323 325 325 326 327 328 328 329 331 332 334 335 335 337 340 342 343 344 345 347 348 348 348 349 350 353 355 356 357 358 358 358 358 358 358 358 358 358 359 359 358 356 356 354 356 354 353 353 352 352 352 351 352 351 351 349 348 345 344 342 343 341 340 341 340 339 339 338 339 337 339 340 337 338 334
300 303 299 302 306 304 300 303 304 305 298 295 305 303 306 307 310 312 315 317 318 320 321 322 323 325 325 326 328 330 332 333 333 336 336 338 341 342 343 344 344 346 347 347 347 348 350 353 355 356 357 359 359 358 358 358 358 358 357 358 359 358 358 356 355 354 356 354 354 353 352 352 352 351 351 352 351 349 346 343 342 342 343 340 341 342 340 340 339 339 338 337 336 338 338 337 337
302 298 301 308 308 307 302 294 296 295 291 295 300 298 298 301 297 310 311 313 315 317 318 321 321 324 324 325 328 331 332 333 335 337 338 339 341 342 343 344 345 345 347 347 347 348 350 353 355 356 357 358 358 358 358 357 357 357 357 358 359 359 358 357 356 355 356 355 353 353 352 353 351 353 351 352 350 348 345 348 342 342 342 341 341 341 340 340 338 338 338 336 337 337 339 339 338
305 300 308 301 294 296 300 301 291 291 291 292 296 300 300 302 303 307 308 311 313 315 317 319 319 324 324 325 328 330 332 333 334 336 337 338 339 342 342 343 344 345 347 347 347 349 351 353 356 357 357 359 359 360 359 359 358 357 358 358 358 359 358 358 357 357 356 355 353 353 352 353 352 353 351 349 347 346 345 344 342 342 341 342 341 340 340 340 337 336 338 336 337 337 336 336 339
310 309 304 307 301 298 296 299 299 299 291 293 294 298 294 307 304 309 309 311 312 315 316 318 319 322 325 326 327 328 329 331 334 335 336 338 339 340 342 343 343 344 346 347 348 349 351 352 355 357 358 359 359 359 359 358 358 357 358 359 359 359 359 358 356 356 355 354 354 353 352 353 352 352 350 348 347 345 345 343 343 343 341 342 340 340 340 339 340 337 337 337 336 337 336 334 338
301 302 301 301 302 305 303 302 299 296 292 290 291 291 297 305 311 310 310 313 313 314 317 318 319 322 325 326 327 328 328 330 333 334 335 337 338 339 341 342 344 345 349 349 349 349 350 352 354 357 357 358 359 359 359 358 358 357 357 357 358 359 358 358 356 356 354 354 354 353 352 352 351 350 349 347 347 344 344 344 343 342 341 341 340 339 339 338 338 339 337 337 336 338 337 336 337
303 301 300 301 298 295 294 293 302 300 295 290 292 292 301 308 314 314 312 314 316 315 317 318 319 320 324 326 326 327 328 331 333 334 336 336 337 338 340 342 343 344 347 349 350 350 350 351 353 356 358 358 358 359 358 358 358 357 356 357 358 358 359 358 356 356 354 353 354 353 352 351 349 349 349 347 347 344 345 344 342 341 341 341 340 339 339 338 337 336 338 339 337 337 335 335 335
Wind_Speed
15 10 7 6 7 4 2 3 2 0 1 3 2 2 1 6 5 10 10 12 5 6 7 9 10 8 6 9 15 12 13 2 3 4 5 2 5 9 8 10 11 10 10 7 8 8 10 14 18 19 17 17 17 19 20 19 19 18 17 17 17 17 17 16 16 17 17 16 17 17 17 17 17 15 14 14 14 14 14 13 13 12 12 12 13 13 12 11 10 9 9 9 9 8 8 8 8
11 10 8 3 5 4 0 2 1 4 2 4 2 4 1 4 1 5 4 9 6 7 6 13 15 17 18 15 11 15 15 10 5 8 5 5 8 8 12 11 12 13 12 8 7 7 8 11 18 19 17 15 14 15 19 19 17 17 16 16 16 17 17 16 16 16 16 15 16 17 17 17 16 14 14 14 14 14 13 13 12 12 12 12 12 12 12 11 10 9 8 7 8 8 8 9 9
11 12 9 5 3 1 1 1 1 2 4 4 3 2 4 2 5 0 13 12 12 12 12 12 14 12 13 10 11 12 4 8 14 13 10 11 12 8 11 11 12 13 12 9 8 7 7 11 16 18 18 16 15 13 18 18 17 16 16 15 16 17 16 16 16 16 15 15 16 16 16 16 15 14 14 14 14 13 12 12 11 11 12 12 11 11 11 10 9 8 8 6 6 8 8 8 8
12 8 10 9 4 1 3 2 3 2 3 3 6 8 8 9 7 7 13 12 8 6 7 13 10 8 17 16 12 17 11 9 8 12 9 10 6 11 10 11 12 10 9 7 8 8 7 14 16 17 18 16 16 16 17 17 17 16 16 15 15 16 16 16 16 15 14 15 15 15 15 15 15 14 14 14 13 12 11 11 11 11 11 11 10 10 9 9 8 8 8 6 6 6 7 7 7
10 7 6 3 1 2 1 1 2 2 4 2 2 1 7 9 10 14 11 10 11 13 12 10 11 11 14 14 7 4 8 12 11 7 8 8 12 12 11 11 10 10 10 9 8 8 10 18 18 16 15 16 15 13 16 16 16 16 15 15 15 16 16 16 15 15 14 15 15 14 15 15 14 13 13 14 12 11 10 11 11 10 9 9 9 9 8 8 7 7 6 6 5 4 4 5 5
9 7 1 2 2 2 1 1 5 3 8 3 6 4 9 10 14 13 14 11 14 12 13 12 11 11 11 10 5 8 12 8 10 7 11 11 16 17 15 12 11 10 10 10 9 6 8 18 18 17 16 15 14 12 15 16 16 16 15 15 15 16 16 15 15 15 14 14 14 14 14 14 14 13 13 12 11 10 9 10 11 10 9 8 8 9 9 7 7 6 5 4 4 3 3 3 2
5 5 2 1 1 1 4 2 5 5 10 6 5 6 10 9 12 12 15 15 12 15 15 15 16 14 11 7 11 8 11 12 9 10 11 15 16 16 15 12 12 13 12 10 9 9 13 19 19 19 17 15 13 13 14 13 16 16 15 15 15 16 15 15 15 14 14 14 14 14 13 13 13 13 12 12 10 10 10 10 10 9 9 8 8 8 8 7 6 5 4 3 3 3 4 2 1
1 3 3 2 1 3 2 5 7 6 7 9 7 13 8 9 8 13 17 14 10 9 13 12 12 14 13 6 9 9 12 7 14 15 17 15 15 15 14 13 13 14 13 11 9 9 17 18 19 19 18 17 15 14 15 15 15 15 15 15 16 16 15 15 15 14 13 13 13 13 13 13 12 12 11 11 10 9 9 9 9 9 9 7 7 8 7 6 5 5 3 3 3 3 2 2 1
1 1 1 1 1 2 5 7 7 10 9 13 10 6 7 7 5 7 14 12 14 13 17 18 13 16 8 12 11 12 12 16 17 19 17 17 16 15 10 12 14 13 13 12 10 10 11 16 16 18 17 17 17 17 17 17 16 16 16 15 15 15 15 15 14 13 13 13 13 13 12 12 12 11 10 10 9 9 9 8 8 8 8 7 7 6 5 4 3 3 3 3 3 2 2 1 1
1 1 2 2 1 6 4 8 6 11 9 7 9 8 8 8 5 2 15 15 15 16 15 15 13 19 14 15 12 11 11 18 20 18 17 17 17 15 14 14 14 17 14 12 11 11 9 17 17 17 18 17 17 17 17 16 16 16 16 15 14 15 15 15 14 14 13 12 12 12 12 12 11 10 10 9 9 9 9 8 7 7 6 6 6 5 4 3 2 1 1 3 2 2 2 1 2
2 1 3 2 3 4 5 8 8 8 7 5 4 8 6 9 11 9 10 17 18 18 19 20 16 17 12 10 8 11 19 18 18 20 18 19 17 16 15 14 14 15 14 14 13 10 11 12 19 18 18 17 16 16 16 16 17 17 16 15 15 14 14 14 14 13 13 12 12 12 11 11 11 10 9 8 8 9 8 7 6 6 6 4 4 4 4 3 2 2 1 1 2 1 2 1 1
2 2 3 4 4 3 5 5 9 5 9 5 5 8 4 5 7 12 16 17 16 17 14 10 8 16 14 11 8 12 18 19 18 17 17 15 15 18 15 13 15 15 16 15 13 10 10 10 12 18 20 19 17 17 17 18 17 16 15 15 14 14 14 14 14 13 12 11 11 11 11 11 11 9 8 8 7 7 7 7 6 6 5 4 4 3 3 2 3 1 1 1 1 2 2 3 2
2 2 2 2 2 2 6 9 10 6 6 5 6 7 3 4 7 13 15 15 15 15 11 15 19 11 11 9 8 13 17 15 15 16 16 13 14 14 15 14 15 16 16 14 13 12 12 10 9 11 14 21 19 19 18 17 17 17 16 15 14 14 14 14 13 12 12 12 11 11 10 11 11 10 9 8 7 6 6 6 6 5 4 3 3 3 3 3 2 1 1 2 2 1 2 2 1
2 2 1 3 2 5 6 5 6 5 4 6 5 7 6 4 7 15 15 14 13 12 15 18 13 15 14 11 10 10 12 17 17 14 12 14 12 11 15 15 17 16 16 15 13 13 12 12 10 9 12 11 11 15 18 18 17 17 16 15 15 14 14 13 12 12 12 12 11 10 10 10 10 10 9 8 7 7 6 6 5 5 3 3 3 2 1 2 1 0 0 1 1 1 2 2 2
3 1 2 2 5 3 6 4 1 7 6 3 4 8 9 8 1 5 16 16 13 17 14 12 15 12 9 15 10 10 13 18 16 13 13 14 13 12 14 14 15 14 14 14 13 12 12 12 13 10 9 8 9 7 7 13 18 18 17 16 14 14 14 14 13 12 11 11 11 11 11 11 9 9 9 8 6 6 7 5 5 4 3 3 2 1 0 1 1 1 1 2 2 2 2 2 3
4 0 2 2 4 5 9 7 1 8 5 5 5 7 11 10 8 17 12 14 11 10 13 8 9 3 16 11 16 16 18 19 15 13 12 12 12 12 12 13 13 13 11 12 12 11 11 11 9 9 8 8 8 7 7 8 13 16 16 16 14 14 14 14 13 12 11 11 11 11 11 7 8 6 9 6 7 7 7 6 6 5 3 2 2 2 1 1 1 2 2 2 3 4 4 4 5
3 3 2 0 6 6 5 4 5 4 4 6 7 3 7 10 6 13 15 15 17 12 9 12 7 16 17 14 18 20 19 16 14 15 12 9 7 8 9 11 11 10 9 11 11 10 11 11 11 8 9 9 8 8 7 7 9 15 13 15 15 14 13 13 12 12 11 10 9 9 8 4 3 3 4 4 7 3 7 6 6 4 2 1 1 2 2 3 3 3 3 4 4 5 5 5 5
3 1 1 3 5 8 7 7 3 7 7 5 6 5 5 10 16 11 15 15 13 11 11 10 16 13 16 17 19 19 17 18 17 16 12 10 8 9 9 10 11 11 11 10 10 11 10 11 11 10 9 10 8 7 6 6 7 10 7 7 7 9 10 11 8 5 8 4 9 6 4 3 4 3 5 6 4 5 5 7 4 3 2 1 1 2 2 3 4 3 4 5 6 5 5 3 3
3 1 2 6 2 6 9 10 10 1 8 7 7 10 4 10 9 14 12 16 14 13 11 12 15 19 18 18 20 18 18 17 17 16 16 14 11 11 9 9 10 11 11 10 9 11 10 10 10 10 10 10 9 8 7 6 7 6 6 6 6 7 7 7 5 6 4 5 4 4 4 5 4 5 4 4 4 6 6 8 6 5 3 1 1 2 3 4 4 4 5 6 7 7 3 2 1
7 3 5 6 9 7 8 10 12 5 9 10 12 10 9 9 5 7 13 15 14 12 12 14 19 21 21 19 20 20 18 17 16 17 16 14 13 12 11 11 10 10 11 10 10 9 11 10 11 10 11 10 9 8 7 7 7 6 6 6 6 5 5 5 5 5 5 6 5 5 5 5 4 4 7 8 8 4 4 6 8 6 5 2 1 3 5 6 7 6 7 8 6 3 0 0 2
7 6 6 6 7 3 9 13 16 5 3 3 5 10 11 10 5 7 14 14 12 12 16 19 20 22 22 22 20 18 19 18 17 17 16 14 13 10 10 9 10 9 9 9 8 9 11 11 10 10 11 8 9 8 8 8 7 6 6 6 6 5 5 5 6 5 6 7 7 6 5 4 4 5 4 3 2 3 3 3 3 3 3 3 2 1 1 2 4 5 5 7 9 7 3 1 1
7 12 12 12 10 4 10 11 14 8 2 5 3 14 10 8 8 10 15 11 11 13 20 21 21 22 23 23 21 17 18 18 17 16 15 16 16 12 11 9 8 8 8 9 10 10 12 11 11 10 10 9 9 8 9 8 9 7 7 7 7 6 6 6 6 6 6 7 6 5 5 5 5 5 4 3 2 2 3 3 4 4 4 3 1 2 1 0 1 1 5 4 1 8 8 1 3
8 10 14 16 13 6 4 14 16 10 5 3 4 2 9 7 8 12 15 13 12 17 23 23 22 21 21 20 20 20 19 19 18 17 16 16 15 15 13 11 11 10 9 9 9 9 11 11 10 11 10 9 10 8 8 8 8 7 8 7 7 7 7 7 6 7 6 7 6 5 5 5 5 5 4 4 3 3 4 3 5 4 3 3 2 3 2 1 1 2 3 2 2 5 7 1 4
12 9 16 16 18 7 8 13 8 9 8 5 3 6 5 6 5 9 11 14 16 23 23 24 22 21 20 20 19 20 19 19 18 16 16 15 14 15 15 14 11 9 10 11 10 10 11 12 11 12 10 9 8 9 9 9 8 8 9 8 8 8 8 8 7 7 6 7 7 6 5 5 6 4 5 5 4 4 4 3 3 4 4 4 3 3 3 3 3 1 1 1 4 5 8 2 3
14 12 16 10 11 9 11 8 11 9 7 8 4 5 4 6 5 7 2 19 24 22 21 22 22 21 19 19 19 19 18 17 17 16 14 11 12 13 13 11 12 10 11 12 10 11 12 11 12 11 11 11 9 9 9 8 9 7 8 8 8 9 8 8 8 7 6 7 7 7 4 5 4 4 3 4 4 4 4 5 4 4 4 3 1 3 4 3 4 4 4 3 2 5 1 1 1
13 16 14 12 12 13 14 13 15 10 8 10 6 7 3 5 10 6 8 19 24 23 21 22 22 21 19 19 17 16 16 16 16 16 15 14 14 16 13 13 13 12 12 13 12 10 11 11 13 12 11 11 10 8 7 7 9 6 8 8 7 7 8 7 5 7 6 6 6 6 5 5 5 4 5 5 5 5 4 3 2 4 4 3 3 4 4 4 3 6 5 6 2 1 2 1 1
10 13 18 16 14 17 16 13 12 12 8 13 8 9 6 4 6 2 9 21 23 22 21 20 21 21 20 19 16 14 17 17 17 15 12 14 14 15 13 14 13 12 13 14 12 10 10 12 13 12 11 10 8 7 8 8 9 7 8 8 7 6 7 7 5 7 6 6 6 6 4 6 6 5 4 5 5 5 5 5 5 4 5 5 4 4 5 4 3 3 4 2 1 0 1 2 3
14 17 8 13 17 16 8 6 12 8 10 15 10 9 7 6 4 3 14 21 24 23 21 19 19 17 17 17 17 14 14 14 13 15 15 17 12 13 14 14 15 13 14 14 12 11 11 13 13 12 12 9 9 6 8 7 8 7 7 8 7 7 8 6 6 6 6 6 5 5 4 4 5 6 6 4 5 5 5 5 4 5 5 4 5 4 3 3 4 3 4 2 1 1 2 3 3
17 13 11 10 14 10 10 9 11 6 9 16 11 11 7 7 7 8 16 19 21 23 22 20 17 16 15 16 15 14 14 14 12 14 13 14 12 12 14 14 16 12 12 14 13 14 13 14 12 12 12 9 10 8 8 8 6 6 6 7 6 6 6 5 6 6 6 6 6 6 4 4 4 5 5 5 4 5 4 3 3 3 5 5 4 4 4 3 3 3 2 1 0 1 1 3 3
13 13 8 5 4 8 11 9 9 13 7 14 12 6 7 8 8 13 13 16 19 21 19 18 14 15 14 14 15 14 14 15 13 15 11 13 12 13 13 14 15 12 11 11 14 15 11 11 9 10 12 10 12 8 8 7 7 6 6 6 5 6 5 4 3 4 7 6 7 6 6 5 4 4 5 4 4 4 4 5 4 3 5 5 4 3 3 2 3 3 1 1 2 2 3 5 1
10 12 8 4 0 3 10 7 11 11 15 14 14 6 7 9 10 13 13 14 20 17 17 17 15 16 14 13 15 15 14 13 14 15 9 13 11 12 12 13 14 12 11 12 15 15 12 11 10 10 12 12 12 9 10 8 7 6 6 6 6 5 5 5 5 4 6 6 6 6 6 5 5 5 4 5 4 4 3 3 5 5 6 6 5 4 5 4 3 2 0 0 2 2 1 2 1
8 4 7 4 4 7 10 14 11 9 12 14 13 4 8 10 9 16 12 12 20 18 15 15 16 15 14 12 16 15 13 10 13 15 11 14 10 12 12 14 14 13 13 10 14 14 14 11 13 10 14 12 11 8 9 8 8 7 6 6 5 6 6 7 6 6 5 6 6 6 6 6 5 5 5 5 4 4 4 5 2 6 5 6 5 4 4 4 3 2 2 2 1 1 2 3 3
7 10 1 4 4 9 9 18 9 10 9 11 14 4 9 7 8 16 12 12 19 17 17 15 16 17 15 11 14 13 11 11 12 15 12 12 11 11 12 13 13 14 14 10 13 12 14 12 13 13 14 13 11 9 7 8 8 7 7 7 7 6 7 6 6 5 6 7 6 6 6 6 6 6 5 5 5 5 4 4 5 6 5 6 5 4 4 4 3 2 2 2 2 1 1 3 4
8 3 5 8 8 8 7 10 8 11 12 5 11 4 8 6 6 13 13 12 17 16 17 18 15 14 14 11 14 14 12 13 14 17 16 13 12 11 12 11 13 14 14 12 12 11 11 11 10 13 12 13 11 10 6 8 8 8 7 7 6 7 7 6 5 5 6 6 6 6 7 6 6 5 5 5 5 5 4 3 5 6 6 5 5 4 4 3 3 3 3 3 2 2 2 2 3
8 4 5 8 12 11 7 8 8 9 14 10 10 6 5 13 10 10 15 14 13 15 18 17 16 15 15 13 13 15 12 14 14 15 17 14 14 11 12 12 12 13 13 14 12 12 8 10 8 12 12 13 12 10 6 6 6 6 6 5 5 6 6 6 6 5 5 5 7 7 7 7 6 6 6 5 5 5 3 2 6 5 5 6 6 5 4 3 3 3 2 2 1 2 2 3 3
12 13 9 10 9 9 10 8 10 13 12 9 12 10 5 11 10 8 11 14 11 13 16 15 15 16 16 14 14 14 13 14 12 11 16 14 13 12 11 11 12 11 12 13 13 12 10 8 9 8 11 12 11 10 8 6 5 6 5 5 3 4 5 5 5 6 6 5 7 8 7 6 5 6 5 5 5 4 3 5 7 5 5 6 6 5 4 4 3 3 3 2 0 2 3 3 3
14 14 12 8 12 11 11 8 12 15 8 9 10 13 9 12 13 10 15 14 11 12 15 15 15 15 16 15 15 16 15 14 13 13 15 16 16 14 11 12 11 11 10 13 14 14 12 10 11 10 9 10 11 10 9 8 7 6 4 6 5 4 5 3 4 4 6 5 7 7 8 6 7 6 6 6 6 5 5 6 6 5 5 5 6 5 5 4 4 4 4 2 3 1 1 1 2
17 13 13 11 9 9 8 8 17 14 9 9 10 13 9 11 12 8 15 15 15 13 15 16 16 17 16 17 17 17 15 10 12 10 12 14 13 14 11 12 12 14 12 13 15 14 13 11 12 12 8 9 11 11 9 9 7 7 7 6 4 5 5 5 4 5 5 5 6 8 7 7 8 7 6 5 6 6 6 6 6 6 5 4 4 3 3 4 4 3 3 2 1 2 1 1 2
14 12 11 11 11 11 11 6 16 15 12 9 13 12 9 11 13 8 9 14 12 14 14 16 15 18 15 17 17 16 14 13 15 14 13 14 17 17 12 13 13 16 14 12 12 12 13 12 11 11 10 8 10 11 10 9 7 6 7 5 6 4 5 5 6 5 5 5 6 7 8 8 8 7 6 6 6 6 7 6 6 6 5 5 4 4 4 5 3 5 4 4 1 1 2 1 1
11 11 9 10 9 7 4 8 12 13 10 10 13 13 6 10 10 10 7 11 6 11 15 16 16 17 18 19 17 17 18 16 17 17 16 14 16 16 14 13 14 14 14 13 13 15 13 12 11 11 11 8 8 10 10 9 9 6 6 6 6 6 6 6 6 5 5 4 5 7 7 8 8 7 7 6 5 5 7 7 6 5 5 5 6 5 4 5 3 4 4 3 2 1 1 1 1
16 15 10 10 10 12 11 9 8 10 8 13 12 8 6 9 11 9 8 9 9 10 13 13 15 16 19 18 18 18 20 19 18 18 17 15 16 16 16 14 14 15 15 15 15 15 12 15 13 12 11 12 8 9 11 9 8 7 6 5 7 4 3 7 6 5 6 7 5 6 7 8 8 7 7 7 6 6 6 6 6 6 6 6 5 5 5 5 5 5 5 4 3 2 0 1 1
12 17 17 13 11 12 12 16 9 3 4 7 7 3 5 9 14 14 9 8 10 9 13 13 13 15 15 17 17 17 18 18 20 20 20 19 18 16 16 16 15 14 15 15 16 15 13 12 13 12 11 11 11 9 10 10 9 9 8 8 8 7 6 7 8 8 7 8 7 7 7 8 8 7 6 7 6 6 6 6 6 6 6 7 6 6 5 5 5 5 5 5 4 3 3 2 1
9 12 15 18 17 16 17 16 7 2 5 6 6 7 3 9 12 14 12 12 14 6 12 13 11 13 16 16 17 17 18 17 17 19 19 19 17 17 17 17 17 16 15 14 14 14 14 14 13 14 12 11 11 11 10 10 10 9 10 10 8 8 8 6 6 7 7 7 6 7 7 7 7 7 6 7 7 7 7 7 7 7 8 7 6 6 5 5 6 6 3 4 5 4 4 2 0
12 6 12 14 18 19 17 17 11 3 5 6 16 10 5 5 9 14 15 15 13 11 10 13 11 10 16 17 17 18 18 19 18 19 20 20 19 19 18 18 17 16 14 13 14 13 15 16 15 14 11 11 10 11 11 10 11 10 10 9 8 7 8 7 7 6 6 6 6 6 6 6 7 7 7 7 8 8 8 8 8 8 7 7 6 6 6 5 5 4 6 6 5 4 6 5 2
9 9 10 13 15 17 16 14 11 6 3 6 12 13 5 5 5 11 15 13 13 14 11 12 13 11 11 14 17 19 19 19 19 18 20 20 20 20 18 17 16 15 14 13 14 14 14 15 15 14 13 12 11 13 13 12 11 11 11 9 9 7 7 6 6 6 6 7 7 5 6 7 7 6 7 8 8 9 9 9 8 8 7 7 5 5 4 6 7 6 5 6 5 4 4 3 3
11 11 11 12 10 13 15 11 11 7 7 9 8 11 5 3 6 7 11 15 14 13 12 9 9 11 11 13 15 18 17 17 19 20 21 20 20 20 19 18 17 16 14 13 13 12 12 13 15 16 15 13 12 14 14 13 12 11 11 10 11 9 7 6 6 7 6 6 7 7 7 7 6 6 6 8 9 9 9 9 7 9 9 8 6 5 6 7 6 6 6 5 5 4 3 5 4
6 12 12 12 13 10 7 11 7 5 7 5 8 16 14 6 10 12 10 13 16 13 10 10 11 13 12 13 13 16 16 16 16 18 19 20 20 20 18 19 19 17 14 15 15 15 14 14 15 17 17 13 13 14 14 15 13 12 11 12 12 11 9 9 8 8 7 6 8 8 7 7 7 7 7 7 9 9 9 8 7 8 9 8 6 6 7 7 7 7 6 5 5 5 4 4 4
13 8 10 8 9 7 7 3 5 9 8 5 6 6 8 11 4 11 12 11 17 16 15 15 14 16 15 12 14 14 16 16 18 18 18 19 17 18 18 19 19 19 16 16 16 15 15 15 15 17 16 15 14 13 14 14 13 12 11 12 12 11 11 9 10 11 9 10 9 8 7 7 7 7 7 8 9 9 8 8 7 6 8 7 8 8 8 8 7 6 6 6 6 6 5 5 4
14 11 7 10 6 4 8 5 6 7 9 4 8 8 9 10 7 13 14 14 16 17 17 18 17 15 15 14 14 13 13 17 17 17 16 16 18 19 20 20 19 19 18 18 17 16 15 15 17 17 17 16 15 14 15 15 14 13 13 13 12 11 11 11 10 11 9 10 9 9 9 9 8 7 9 9 9 10 9 8 6 7 7 7 6 6 6 7 7 6 7 6 5 5 5 5 5
12 12 11 7 8 8 8 6 3 3 4 8 8 9 13 3 3 15 18 17 19 20 19 20 20 18 18 17 15 14 13 16 17 17 17 17 18 19 21 20 19 19 20 19 18 17 15 15 17 18 17 16 14 14 15 15 15 14 13 13 12 11 11 12 10 10 10 9 9 10 11 10 9 10 10 10 9 9 9 7 7 8 8 6 6 6 6 7 7 7 6 6 6 5 4 5 4
13 9 10 11 7 6 9 6 8 6 5 4 10 8 3 10 5 13 16 17 17 18 19 19 20 20 18 19 17 17 16 15 16 16 17 18 19 20 19 19 18 18 20 19 17 17 16 16 18 19 17 17 16 16 14 15 14 14 13 13 12 11 11 11 11 9 10 10 10 11 11 9 9 9 10 9 9 10 9 8 8 9 8 8 6 6 7 7 7 7 6 6 6 5 5 5 4
12 12 7 9 17 6 5 3 3 3 2 5 5 5 6 8 7 14 16 18 19 17 18 17 20 20 19 16 16 15 15 15 14 15 16 17 17 18 17 18 18 17 19 18 18 17 17 17 18 19 19 18 17 16 15 15 14 13 14 14 14 13 11 11 10 8 9 11 11 11 11 10 9 9 8 9 9 11 9 9 9 9 9 8 7 7 7 7 7 8 6 6 6 4 6 5 5
6 11 18 17 3 5 2 5 4 1 6 11 2 5 6 3 4 3 7 13 16 16 17 17 17 19 18 16 16 16 16 16 15 15 15 16 16 17 18 18 17 17 18 19 19 17 18 17 18 19 18 17 17 17 15 14 14 14 15 14 13 13 14 14 12 11 11 11 11 10 10 11 9 8 8 10 9 11 10 10 9 9 9 8 7 7 7 7 6 6 6 5 6 6 5 7 6
2 12 7 1 5 6 5 5 5 7 6 4 9 12 3 5 6 5 9 8 15 16 14 16 16 17 20 16 16 18 18 18 18 17 17 18 18 20 19 18 19 19 20 19 18 16 16 16 18 19 18 19 18 17 16 15 15 14 14 15 15 15 15 14 12 11 11 11 10 9 9 9 10 9 8 9 8 11 10 10 9 8 8 8 8 7 8 8 7 6 5 4 4 4 4 4 5
12 3 9 10 9 16 5 4 5 8 11 4 4 6 9 9 5 7 13 8 11 14 12 13 12 15 21 22 23 21 21 18 17 18 18 16 16 18 18 19 20 20 18 18 18 17 15 15 17 19 20 20 20 17 16 14 15 12 12 15 16 15 14 13 12 11 11 12 12 11 11 11 10 9 9 9 8 11 10 9 9 9 8 8 8 8 8 8 7 6 5 6 4 4 4 4 4
15 11 7 11 4 8 8 6 5 1 4 5 8 10 5 5 5 10 14 14 12 13 16 16 15 15 19 21 21 20 20 17 19 19 18 19 20 20 20 20 19 19 18 17 18 16 18 17 17 17 17 17 17 18 17 16 15 13 13 13 15 15 15 14 13 12 12 13 13 12 12 11 12 10 10 10 9 10 10 11 10 10 10 9 9 8 8 7 7 7 6 6 6 5 4 4 3
11 12 14 5 5 3 4 5 9 9 6 4 3 5 6 6 4 7 7 8 12 12 16 17 17 16 20 21 21 21 21 19 19 19 18 20 20 19 19 19 18 17 15 16 18 20 19 17 17 18 19 19 19 19 17 16 14 15 15 16 16 15 16 14 14 13 12 13 13 12 12 10 10 11 10 11 11 10 10 12 12 11 11 10 10 9 8 7 7 7 7 7 7 6 6 5 4
12 13 15 13 7 5 12 12 9 11 7 5 5 10 3 4 9 6 6 9 9 11 10 12 14 13 19 21 21 19 19 19 20 19 19 18 18 19 17 15 13 15 16 18 19 18 19 19 18 18 18 18 19 18 17 16 15 15 17 16 16 15 15 14 15 14 13 13 13 13 12 10 12 11 11 12 11 10 10 11 11 11 11 11 10 11 10 9 9 7 7 7 7 7 7 6 5
Wind_Direction
149 156 159 140 115 107 105 312 319 300 253 244 271 97 91 47 90 133 187 181 168 83 109 95 77 55 81 99 94 74 22 118 297 154 176 157 100 137 144 127 122 125 133 139 135 132 136 133 134 130 124 126 123 123 122 122 122 122 120 120 118 115 112 111 110 108 109 110 111 110 108 106 108 111 113 111 108 105 103 103 101 98 94 90 91 89 87 86 81 77 75 67 63 70 72 70 72
152 152 144 152 100 105 1 225 13 316 270 296 231 100 298 70 253 138 134 110 97 109 94 95 93 100 106 119 120 77 36 22 45 99 66 96 124 133 141 140 137 133 132 126 122 128 128 132 133 133 127 122 122 123 126 126 124 124 125 123 120 116 114 114 112 110 112 113 111 110 110 111 113 115 113 109 105 101 101 100 95 94 92 88 87 89 89 89 84 77 72 61 58 65 67 69 69
159 158 138 141 63 58 58 21 309 220 309 341 330 57 104 137 123 233 106 102 99 99 104 110 103 88 82 72 43 83 87 56 77 78 108 135 130 149 147 143 134 130 128 133 134 133 135 140 139 137 135 129 128 130 129 127 127 129 128 126 121 117 116 116 113 112 114 113 112 113 114 115 116 115 111 107 103 102 103 101 98 92 88 86 84 85 88 90 89 85 77 68 65 65 63 55 55
163 153 148 171 129 198 195 206 238 296 296 203 266 174 176 142 182 122 106 111 115 98 80 84 72 86 92 76 98 94 106 91 83 120 123 152 149 148 147 131 128 128 127 129 131 131 131 140 138 137 138 137 138 136 134 132 131 133 130 127 121 118 118 118 116 116 116 115 115 115 116 114 114 110 106 103 103 104 104 102 96 89 86 86 86 84 85 87 86 80 80 74 66 66 65 59 55
133 142 142 198 152 161 198 211 199 82 255 206 255 299 154 152 141 115 118 123 105 94 89 97 96 85 87 111 122 94 114 117 120 112 120 116 138 142 133 127 128 125 127 126 125 131 137 144 141 138 139 140 142 147 142 135 134 134 131 128 124 121 120 120 121 121 120 118 118 118 115 116 113 109 107 106 107 109 106 99 95 94 94 95 94 92 93 87 84 86 84 81 69 69 74 75 67
117 119 221 154 137 197 323 354 311 262 245 242 325 300 135 138 115 140 145 122 109 110 102 87 90 92 80 72 84 110 145 133 120 95 119 138 141 135 134 134 128 127 128 129 129 134 140 142 142 144 145 144 143 146 141 138 137 135 132 129 127 125 124 125 126 125 123 121 122 121 120 116 113 114 115 114 114 114 109 102 101 102 102 100 96 100 100 97 92 92 95 82 65 57 81 87 83
151 115 162 174 54 151 162 195 244 234 265 226 237 267 121 124 141 134 105 101 100 101 98 108 110 99 80 88 92 94 94 113 119 135 133 141 135 134 136 134 133 133 135 134 135 141 149 146 146 148 147 146 146 147 141 139 139 137 135 133 130 128 128 129 128 126 126 126 125 125 123 116 116 118 118 120 122 120 111 107 109 108 104 99 97 96 97 98 104 103 91 86 75 61 61 90 70
165 155 176 175 207 97 222 202 220 230 266 193 186 246 101 134 139 118 123 125 121 110 125 117 92 88 76 85 99 107 113 98 117 123 128 134 136 134 135 137 136 137 136 135 138 143 152 152 149 149 149 148 152 154 146 140 142 138 137 136 133 132 132 129 128 129 130 129 130 128 125 121 120 119 119 123 124 119 111 109 107 104 102 97 91 90 87 90 98 92 83 72 88 70 61 89 106
29 123 349 41 261 209 275 262 255 220 225 165 198 206 125 115 64 128 119 118 118 115 111 109 117 92 111 95 86 100 97 114 120 128 135 137 140 139 139 143 141 138 138 139 142 144 148 155 150 150 152 154 157 152 149 148 146 143 140 137 133 132 132 132 133 135 134 134 133 133 130 126 122 120 123 128 129 119 113 111 107 103 99 99 97 94 96 92 90 97 92 66 58 49 51 85 194
4 180 211 209 295 305 270 277 255 193 179 158 154 157 128 99 117 10 132 131 121 112 101 92 96 100 116 103 113 111 110 120 129 134 138 141 142 141 143 147 143 138 137 140 143 146 152 155 154 155 149 152 152 150 148 150 150 146 139 136 137 137 137 138 140 142 141 142 139 136 132 128 125 125 129 133 132 122 117 110 107 102 98 94 91 95 95 92 69 59 49 49 61 57 28 139 219
166 207 259 286 214 268 269 289 278 106 119 128 114 108 144 140 147 197 102 97 94 106 109 107 96 112 114 94 86 116 128 130 137 140 148 146 144 145 147 149 143 139 137 141 145 148 154 154 158 157 151 152 151 151 153 153 152 148 141 140 143 144 143 144 147 147 148 146 142 136 135 131 131 133 135 136 130 123 117 113 107 108 104 100 86 85 84 86 59 80 74 77 76 105 154 153 170
197 225 175 234 250 234 283 273 298 136 120 135 122 144 153 139 160 120 107 110 116 121 130 122 112 117 98 114 125 135 136 141 142 146 148 150 143 149 152 147 140 140 142 143 144 147 149 154 156 157 155 155 155 155 156 157 153 148 145 145 147 149 150 151 153 152 150 148 142 139 140 139 138 139 141 138 132 127 123 120 117 111 109 99 82 66 61 61 74 85 110 123 96 150 190 203 196
218 247 254 278 252 175 256 274 260 156 133 131 143 82 85 142 141 114 113 126 133 129 116 114 131 123 118 126 131 138 142 136 131 144 148 148 147 151 145 138 141 144 146 144 146 149 149 151 147 154 154 156 156 156 154 154 153 151 151 151 153 155 156 156 156 153 152 151 147 144 144 144 148 147 148 147 142 137 133 133 135 126 124 114 108 80 51 62 69 97 119 110 130 182 215 239 242
204 215 135 270 263 265 271 268 263 111 79 103 107 148 134 166 126 132 133 133 125 112 128 135 129 117 108 123 146 151 137 138 147 150 150 142 148 144 141 139 145 147 144 146 149 150 150 149 149 156 152 151 152 155 155 154 154 153 154 156 158 158 159 158 157 157 156 156 153 152 151 153 155 152 152 153 154 154 151 155 149 146 130 119 106 98 83 53 94 138 169 190 159 194 261 285 294
214 151 221 259 294 309 259 260 103 105 118 135 150 147 146 94 98 78 123 117 103 126 137 120 131 112 170 150 157 155 143 142 147 146 144 144 145 142 143 144 141 137 144 149 147 150 152 150 152 152 148 148 146 146 151 156 156 156 158 159 161 162 161 161 160 160 162 158 159 161 161 162 162 158 152 156 155 155 166 175 173 164 154 128 117 129 56 133 205 238 251 278 277 256 255 275 284
171 243 34 6 284 304 288 277 50 111 145 152 193 141 129 122 129 112 125 117 121 123 132 132 198 118 157 155 148 144 144 142 145 141 135 139 143 146 147 132 135 142 146 147 152 155 151 149 147 151 153 152 150 150 153 154 157 158 159 160 161 162 160 160 162 166 167 167 167 170 168 165 166 167 164 168 169 176 178 188 191 180 168 168 178 186 210 155 209 255 248 262 289 294 297 318 325
111 76 23 254 294 307 291 333 24 94 104 76 76 99 116 141 98 92 113 119 131 146 145 157 147 127 149 148 142 141 139 138 134 139 142 141 142 141 138 138 143 145 145 153 158 159 154 147 153 154 156 155 154 152 155 156 161 160 161 162 164 165 165 166 167 169 170 172 171 172 172 163 171 172 176 172 187 185 187 202 185 168 167 191 199 212 231 228 224 233 249 259 269 287 297 297 296
130 164 161 259 223 274 280 300 31 153 113 123 168 126 159 120 116 127 120 122 127 149 136 139 129 136 130 133 132 134 136 142 142 143 144 144 147 145 146 145 146 149 152 159 165 160 152 151 157 157 157 160 157 154 156 157 164 161 161 165 165 167 168 168 168 168 173 165 176 179 167 188 186 183 177 204 183 197 201 192 179 156 151 126 221 235 250 260 256 263 267 266 260 248 255 266 294
152 230 188 258 245 241 264 312 321 183 126 164 160 136 171 116 130 142 132 137 144 151 144 156 129 120 124 129 131 132 142 146 145 148 150 152 155 154 149 146 146 147 155 160 164 158 152 154 160 159 160 166 159 156 156 158 162 159 163 166 170 169 174 171 170 172 161 175 178 180 186 203 195 181 181 208 179 173 178 193 170 172 153 158 249 297 279 281 280 272 275 278 261 248 239 243 256
185 181 240 245 255 285 358 313 290 324 142 182 147 166 122 127 152 171 144 149 155 150 146 117 123 132 140 139 140 144 149 148 151 153 153 154 153 149 151 151 152 156 155 160 159 151 151 159 162 163 164 169 157 156 153 158 165 161 166 169 169 169 178 173 174 174 175 182 188 187 200 203 183 172 196 195 197 171 190 192 176 172 154 151 94 38 352 325 313 312 317 300 281 295 64 187 63
161 203 228 251 256 34 316 292 291 304 250 115 185 132 120 169 166 164 142 148 161 141 137 138 141 142 145 147 147 153 152 152 156 157 157 153 153 150 155 157 157 156 154 149 151 152 154 160 162 162 168 165 156 156 159 161 168 164 168 173 169 172 182 172 183 191 186 185 191 194 198 192 177 181 200 225 140 170 177 173 159 122 98 90 111 94 46 22 18 8 10 4 351 316 242 75 195
177 202 218 227 251 166 222 263 261 259 321 137 178 139 148 160 156 147 162 164 173 155 143 143 144 147 149 150 151 156 155 155 160 160 162 156 159 157 157 156 155 151 153 154 158 155 161 163 164 162 167 161 160 160 163 166 167 171 173 174 171 181 178 181 189 201 188 188 191 188 190 191 189 180 188 185 185 164 150 105 124 125 125 148 130 126 79 64 69 351 56 46 123 309 300 215 199
225 200 215 220 234 248 232 229 239 233 156 235 90 167 129 162 185 152 179 180 165 147 141 141 147 150 153 148 153 158 160 159 166 165 163 161 161 162 160 161 163 159 161 161 157 159 160 165 158 160 164 162 166 167 162 168 176 177 173 177 172 182 178 188 192 200 192 180 185 196 198 188 189 169 175 175 189 154 107 118 121 135 143 159 194 132 173 167 125 184 112 137 218 231 275 211 231
207 201 207 209 218 214 230 269 272 162 187 169 187 119 161 152 233 162 186 194 136 129 140 142 146 150 152 154 159 159 161 166 169 163 164 165 161 163 160 160 165 158 155 161 160 162 165 167 159 161 166 167 171 178 169 172 181 175 175 181 175 182 179 190 194 196 186 177 183 197 192 158 165 159 174 172 176 129 138 148 150 165 164 178 168 158 173 201 178 59 80 234 236 202 228 178 187
200 225 186 211 182 206 238 239 266 187 182 134 175 116 206 180 151 144 310 113 119 132 136 140 144 148 156 159 162 162 163 169 168 159 165 163 165 161 159 153 162 165 153 159 163 165 169 163 160 163 166 172 181 179 168 170 179 175 174 181 180 182 182 189 191 186 183 187 183 195 165 165 154 154 171 173 150 154 156 154 171 160 157 165 166 188 199 164 192 149 178 232 245 261 327 74 12
234 226 182 192 173 194 213 223 234 201 163 144 169 168 179 231 120 158 151 128 129 133 137 143 146 151 160 163 164 162 164 165 172 165 169 164 167 162 168 158 160 173 158 160 167 166 167 158 164 168 170 178 181 171 165 166 179 181 177 182 182 173 180 192 175 178 182 174 187 191 171 171 167 170 161 165 135 149 160 178 175 153 150 147 165 222 187 157 159 140 184 203 223 342 23 226 239
256 241 202 188 185 202 206 215 233 176 174 147 172 175 157 208 136 215 121 119 132 136 143 149 151 158 162 165 163 165 168 169 176 165 166 168 164 168 165 162 161 172 157 161 168 166 169 161 167 169 170 175 181 169 168 171 182 185 175 181 178 180 183 187 177 173 169 178 185 188 183 161 160 182 166 158 148 154 172 189 200 160 146 187 153 195 138 149 158 142 141 136 147 219 278 264 260
257 270 174 181 195 207 187 222 240 174 169 154 166 160 181 148 178 189 128 133 136 140 145 152 152 156 161 163 159 167 174 170 175 171 168 174 169 171 166 168 167 172 163 165 168 167 170 167 168 166 170 174 180 173 168 174 183 189 171 175 178 183 180 179 182 169 170 171 169 170 161 147 132 144 144 143 144 154 169 178 184 141 173 178 176 160 154 163 155 152 156 176 167 176 252 294 260
269 261 253 220 191 196 177 216 238 203 154 158 170 136 188 145 218 161 135 138 139 141 148 150 158 157 162 165 160 166 180 172 175 179 170 175 168 170 167 167 169 166 169 163 163 170 172 168 168 167 171 174 178 181 169 182 182 181 172 166 166 168 174 175 173 168 148 152 152 151 144 143 122 118 141 155 158 160 171 163 154 153 146 131 133 141 153 149 137 143 148 116 333 311 279 282 257
283 272 261 312 260 209 184 198 233 231 157 166 143 152 182 182 211 146 143 142 140 139 147 155 160 157 164 168 163 168 181 176 175 181 173 173 166 171 166 166 166 161 164 159 162 173 169 168 168 170 170 175 178 179 179 176 182 173 166 164 159 155 171 173 186 185 146 151 151 154 154 151 147 143 156 169 167 166 181 176 174 161 145 137 129 109 111 132 116 99 164 61 289 271 263 246 211
272 273 289 243 121 260 187 187 212 243 154 162 145 142 189 173 213 150 154 146 142 143 149 157 156 161 169 166 166 173 186 180 170 178 174 170 165 172 166 164 162 162 162 161 168 172 169 169 170 169 171 178 178 181 181 171 174 166 161 165 164 162 166 176 204 199 150 154 149 154 155 159 162 168 175 167 165 157 176 195 200 161 155 133 121 129 119 97 100 115 107 7 276 260 250 287 268
288 268 234 229 227 262 236 188 199 217 157 151 147 129 179 177 200 149 155 151 142 146 152 156 159 162 168 163 166 173 185 173 165 175 175 173 171 174 169 166 162 162 171 164 167 165 173 173 169 161 171 176 182 180 177 162 169 165 166 174 175 173 169 179 192 197 156 152 151 156 162 165 169 178 175 156 162 165 188 217 175 144 134 119 122 126 123 124 132 160 222 191 225 343 354 328 334
269 252 224 273 183 243 265 184 182 176 162 154 159 171 164 184 195 153 155 154 146 150 155 157 166 160 167 165 168 171 179 178 168 174 177 173 182 175 174 169 166 165 171 168 170 162 176 169 169 163 168 175 178 184 171 166 165 168 172 175 185 178 172 179 185 183 165 153 163 161 167 167 175 178 171 171 172 179 191 214 138 137 129 123 127 137 129 146 148 174 234 245 190 211 302 298 314
273 245 244 254 231 214 254 168 172 160 143 183 172 176 171 158 165 153 157 162 151 155 155 160 167 161 166 165 168 170 184 183 179 176 180 178 182 179 176 171 165 165 169 173 174 169 173 171 166 168 166 172 176 187 174 168 168 169 174 177 177 175 174 171 181 194 164 168 154 164 164 168 174 176 178 174 175 181 196 183 130 138 130 129 127 134 147 161 183 181 196 237 225 166 238 258 288
248 256 232 236 254 252 216 176 172 163 150 178 168 203 189 163 168 171 164 168 160 163 156 164 163 164 168 166 172 174 185 189 185 179 178 177 178 183 173 174 169 164 171 173 169 177 164 173 159 167 162 170 173 182 177 161 158 163 178 169 174 172 174 176 178 174 192 152 159 162 166 173 174 176 180 178 167 184 199 157 122 128 133 139 138 143 160 176 200 176 151 228 222 187 196 236 224
236 242 222 221 234 232 242 181 169 173 161 169 160 190 188 158 177 188 172 164 173 165 161 164 163 166 167 168 170 176 188 192 188 177 174 173 176 181 176 175 173 166 168 171 168 174 175 167 171 157 167 162 169 174 171 166 158 164 167 188 182 173 168 168 166 174 176 171 156 161 171 167 175 181 183 178 171 171 164 105 130 135 139 138 138 140 168 180 196 192 201 153 235 297 252 237 239
248 249 254 235 223 240 236 205 162 167 158 171 168 180 176 168 176 192 169 167 177 166 167 166 166 166 170 169 172 178 186 191 185 180 174 174 174 178 176 173 172 171 162 172 171 175 178 172 173 176 170 162 164 169 175 169 170 172 173 182 190 181 175 170 172 164 164 182 153 166 166 172 176 180 180 174 176 174 145 129 131 146 145 144 150 170 176 193 204 184 173 172 183 240 318 277 219
241 256 263 270 269 251 240 198 159 170 166 179 174 178 180 170 171 168 162 169 181 177 171 171 169 168 170 172 173 178 185 181 178 181 178 172 173 177 170 174 169 175 177 173 178 177 176 171 177 180 171 169 167 167 170 177 175 181 179 180 164 167 166 177 192 191 186 188 170 165 170 175 176 176 177 178 175 169 150 142 147 153 152 156 169 167 181 197 195 176 140 204 210 183 232 209 222
238 241 254 270 267 283 291 276 164 171 174 174 174 178 184 171 165 173 170 173 179 181 169 176 172 166 172 173 174 175 175 179 179 187 183 179 176 179 174 178 180 180 179 173 175 173 178 178 177 180 185 169 173 167 168 175 178 175 168 174 167 168 184 178 183 184 186 189 183 173 169 171 170 176 177 180 172 166 158 151 158 159 160 160 158 186 206 183 176 160 164 163 185 254 220 264 134
243 241 245 247 264 265 280 279 184 178 171 160 170 184 169 154 159 179 188 175 181 183 175 176 175 170 172 175 175 173 176 177 179 183 187 184 179 179 179 179 180 176 178 178 174 179 181 184 180 179 186 176 170 174 170 173 174 172 167 164 173 175 179 183 177 178 191 200 186 183 174 168 172 176 179 177 171 159 152 157 154 155 164 167 170 185 183 186 182 170 166 160 145 67 348 297 138
227 245 243 248 251 253 259 265 257 187 175 152 168 167 147 156 170 182 199 184 188 184 185 181 180 176 175 175 175 171 175 176 178 180 184 184 183 182 183 181 178 178 181 183 181 179 185 184 182 178 179 185 175 175 173 168 167 173 169 168 175 185 150 165 172 188 196 200 191 179 180 172 174 179 175 173 161 150 149 152 155 161 163 175 182 187 185 193 194 172 156 146 144 146 70 340 328
219 225 237 251 260 264 261 265 272 119 146 183 120 166 206 187 175 182 181 188 203 193 187 188 183 179 172 173 177 177 176 176 175 179 183 185 184 182 184 181 180 181 182 185 184 182 176 179 180 179 178 184 186 175 173 169 174 175 172 175 176 178 172 173 183 192 197 198 188 180 173 174 174 175 168 167 157 152 158 162 160 161 173 182 191 191 182 178 154 161 183 161 146 138 143 58 335
218 218 217 238 254 262 271 272 289 160 179 195 183 187 248 188 187 184 181 190 200 204 192 192 184 179 175 177 179 179 177 178 178 179 181 185 185 184 184 184 183 185 186 181 180 180 178 177 179 179 179 181 183 183 172 174 174 179 182 183 176 174 174 193 189 190 186 189 171 166 176 177 172 174 167 163 164 158 161 163 167 172 179 188 185 181 165 170 145 163 148 113 140 135 105 111 64
233 210 210 218 232 250 257 270 269 252 188 190 184 189 154 204 209 188 181 188 192 202 197 192 183 178 182 181 180 180 179 177 178 179 182 184 184 186 186 186 186 188 183 178 180 178 178 179 178 179 177 176 180 183 181 177 178 178 178 181 184 175 176 183 180 177 174 172 178 179 174 180 180 176 166 166 167 164 166 171 172 177 177 184 177 174 165 167 132 130 138 149 147 135 133 139 144
222 228 233 218 222 233 248 257 264 250 238 219 199 184 192 194 228 183 181 186 194 205 195 190 189 185 184 189 181 180 179 178 177 178 182 184 186 186 183 185 187 184 182 183 184 183 180 177 177 176 179 178 181 182 184 183 180 179 178 177 181 187 172 175 177 180 177 180 188 182 170 171 172 175 166 167 169 168 171 181 174 173 168 180 183 171 143 144 143 148 136 137 142 142 131 153 120
217 222 232 250 239 229 233 240 241 246 231 233 206 175 191 239 194 186 170 186 195 202 200 193 192 197 197 187 182 180 181 177 179 178 181 184 185 185 184 181 182 186 184 183 183 181 181 177 179 179 181 182 180 181 184 184 181 177 178 180 181 182 177 171 174 189 193 180 177 173 165 161 169 164 166 165 166 173 176 184 172 163 168 180 182 163 159 153 154 153 156 155 153 141 151 144 152
222 215 236 239 249 250 231 234 242 275 249 233 218 196 183 216 201 180 168 187 187 188 190 199 202 203 202 195 183 177 180 176 179 179 181 184 184 182 178 180 185 184 183 181 182 183 181 181 183 183 185 181 181 181 181 183 181 179 180 181 180 181 178 173 177 194 192 175 169 168 163 167 171 173 168 171 172 175 179 183 172 163 170 177 167 156 161 160 171 162 154 147 145 150 163 156 155
214 216 212 244 263 276 268 264 221 225 249 229 209 243 192 221 238 199 191 177 176 178 188 190 196 202 201 194 190 176 176 179 178 180 181 182 180 181 179 183 182 185 182 183 186 182 182 183 182 185 184 183 182 182 180 183 183 181 181 179 181 181 179 179 182 193 186 181 170 168 169 170 181 173 174 177 179 177 176 180 178 159 165 159 162 163 166 170 162 151 146 151 159 166 165 157 171
209 211 207 200 228 221 255 244 230 224 224 229 228 237 253 233 193 193 190 181 182 182 187 191 194 196 198 194 191 184 172 178 179 181 181 178 180 181 184 185 182 182 186 185 183 183 182 181 182 183 188 183 183 182 183 183 183 184 181 181 182 182 184 186 186 191 184 176 171 166 172 182 180 172 181 181 181 176 175 176 170 164 165 165 163 162 155 155 152 147 149 156 158 153 155 154 159
206 205 197 194 202 212 230 237 243 242 244 219 226 216 244 277 269 181 188 189 184 185 188 189 192 197 192 190 189 187 179 176 181 181 182 180 181 184 185 184 183 186 187 184 182 181 180 181 181 184 186 184 181 183 184 184 186 184 182 181 182 181 187 191 193 191 182 176 172 174 180 183 182 181 180 182 179 172 176 169 167 165 164 165 168 158 141 145 143 150 154 153 167 179 160 167 182
210 213 198 206 207 198 214 200 209 222 225 250 215 238 190 205 206 190 194 193 191 188 190 189 192 194 191 189 185 184 183 177 179 180 182 184 184 183 183 184 185 186 186 184 183 183 179 180 180 182 181 184 182 184 184 186 186 185 184 182 181 183 186 193 199 189 178 175 178 180 184 182 184 185 181 178 173 172 171 162 167 160 163 168 159 148 144 136 146 149 159 168 169 176 178 171 184
199 206 215 219 218 189 207 177 213 267 292 246 241 228 167 199 213 197 194 191 195 191 187 183 189 194 193 187 186 186 185 182 176 176 182 185 184 182 183 184 185 185 185 186 186 183 181 180 179 180 181 181 183 183 186 187 186 185 183 182 182 183 188 193 199 189 176 179 182 183 183 184 187 182 180 174 177 174 168 165 170 165 166 166 159 146 148 147 149 152 165 166 173 180 177 184 196
189 182 212 221 153 215 247 295 266 242 232 241 248 248 245 299 301 267 196 188 190 186 189 187 184 192 188 187 185 187 188 186 183 178 177 180 181 183 184 185 185 183 184 189 188 184 180 176 177 179 179 179 182 184 184 186 185 185 186 184 181 185 189 195 196 188 179 185 185 183 182 187 184 178 172 179 174 175 167 167 170 167 169 167 158 153 148 149 153 154 159 167 171 186 171 190 187
131 209 216 306 236 224 190 207 227 253 225 238 210 235 267 189 251 242 253 202 192 186 182 185 192 175 184 186 188 189 189 191 185 182 183 181 181 183 186 186 184 184 186 187 184 182 179 176 176 177 178 179 181 182 183 185 186 187 186 186 186 187 192 196 194 185 181 185 186 181 182 184 189 181 172 176 169 173 170 172 170 168 167 165 161 154 152 153 152 159 171 173 180 177 180 198 193
227 209 146 217 171 221 186 175 213 208 233 245 233 244 228 184 235 178 232 206 193 191 191 189 187 171 175 183 187 186 189 189 185 187 190 184 183 187 187 186 187 187 182 182 181 178 178 177 177 178 180 180 179 181 184 185 187 188 187 188 187 190 193 195 193 185 183 185 186 184 186 186 184 180 176 174 164 171 172 173 169 169 168 165 161 161 158 158 161 166 172 183 193 190 184 190 205
221 240 241 202 210 196 185 198 220 171 241 225 243 239 248 209 197 195 214 200 188 192 187 191 193 178 176 180 184 184 188 185 188 190 190 190 190 190 189 188 186 185 182 179 177 180 181 179 176 179 179 177 179 182 183 185 186 186 189 190 192 191 192 193 192 188 186 186 188 188 186 183 185 179 179 176 171 167 169 171 173 171 170 165 162 164 163 160 164 176 174 178 192 191 202 208 207
200 212 230 222 235 126 180 179 210 205 214 190 187 241 228 239 211 195 218 205 217 193 189 191 192 177 177 181 186 187 188 188 188 189 189 191 194 195 193 190 187 182 175 173 178 183 183 178 179 177 176 179 182 183 183 185 183 188 188 193 192 190 193 193 192 193 186 186 189 189 190 182 174 182 175 179 178 175 170 170 172 171 169 167 167 169 171 167 167 173 181 182 187 187 197 207 188
200 202 218 219 204 187 183 225 199 215 213 208 207 240 280 255 216 214 221 235 200 205 189 194 194 192 184 188 186 181 186 187 187 188 189 190 195 197 190 184 182 180 177 179 181 180 180 183 180 178 179 182 183 185 184 182 184 187 192 194 193 192 193 192 193 192 192 190 189 190 187 175 180 180 178 179 178 178 177 173 172 172 171 170 170 173 174 173 178 176 181 185 184 187 189 196 197